TimeCDT,TemperatureF,Dew PointF,Humidity,Sea Level PressureIn,VisibilityMPH,Wind Direction,Wind SpeedMPH,Gust SpeedMPH,PrecipitationIn,Events,Conditions,WindDirDegrees,DateUTC
12:53 AM,57.9,55.0,90,30.19,10.0,Calm,Calm,-,N/A,,Clear,0,2013-09-05 05:53:00
1:53 AM,59.0,54.0,83,30.20,10.0,Calm,Calm,-,N/A,,Clear,0,2013-09-05 06:53:00
2:53 AM,57.9,54.0,87,30.20,10.0,Calm,Calm,-,N/A,,Clear,0,2013-09-05 07:53:00
3:53 AM,57.9,54.0,87,30.21,10.0,Calm,Calm,-,N/A,,Clear,0,2013-09-05 08:53:00
4:53 AM,57.9,54.0,87,30.21,10.0,East,3.5,-,N/A,,Clear,90,2013-09-05 09:53:00
5:53 AM,57.9,54.0,87,30.23,10.0,East,3.5,-,N/A,,Clear,80,2013-09-05 10:53:00
6:53 AM,55.9,53.1,90,30.25,10.0,ENE,4.6,-,N/A,,Clear,70,2013-09-05 11:53:00
7:53 AM,57.9,51.1,78,30.25,10.0,East,6.9,-,N/A,,Clear,80,2013-09-05 12:53:00
8:53 AM,62.1,50.0,65,30.25,10.0,East,5.8,-,N/A,,Clear,100,2013-09-05 13:53:00
9:53 AM,66.9,51.1,57,30.25,10.0,East,5.8,-,N/A,,Clear,100,2013-09-05 14:53:00
10:53 AM,71.1,52.0,51,30.25,10.0,Variable,5.8,-,N/A,,Clear,0,2013-09-05 15:53:00
11:53 AM,73.9,51.1,45,30.24,10.0,SE,6.9,-,N/A,,Mostly Cloudy,130,2013-09-05 16:53:00
12:53 PM,78.1,48.9,36,30.23,10.0,ESE,6.9,-,N/A,,Clear,110,2013-09-05 17:53:00
1:53 PM,80.1,52.0,38,30.20,10.0,SSE,10.4,-,N/A,,Clear,160,2013-09-05 18:53:00
2:53 PM,82.0,54.0,38,30.18,10.0,SSE,9.2,-,N/A,,Clear,160,2013-09-05 19:53:00
3:53 PM,82.9,55.9,39,30.17,10.0,SSE,10.4,-,N/A,,Clear,150,2013-09-05 20:53:00
4:53 PM,84.0,57.9,41,30.15,10.0,ESE,8.1,-,N/A,,Clear,120,2013-09-05 21:53:00
5:53 PM,82.0,60.1,47,30.14,10.0,SSE,11.5,-,N/A,,Clear,160,2013-09-05 22:53:00
6:53 PM,79.0,62.1,56,30.13,10.0,SSE,6.9,-,N/A,,Clear,150,2013-09-05 23:53:00
7:53 PM,75.9,63.0,64,30.12,10.0,ESE,4.6,-,N/A,,Clear,120,2013-09-06 00:53:00
8:53 PM,73.9,63.0,68,30.13,10.0,SE,5.8,-,N/A,,Clear,130,2013-09-06 01:53:00
9:53 PM,72.0,64.0,76,30.12,10.0,SE,8.1,-,N/A,,Clear,130,2013-09-06 02:53:00
10:53 PM,69.1,64.0,84,30.12,10.0,SE,5.8,-,N/A,,Clear,140,2013-09-06 03:53:00
11:53 PM,69.1,64.9,87,30.10,9.0,SSE,8.1,-,N/A,,Clear,160,2013-09-06 04:53:00